Theta_e
332 332 331 331 331 332 332 331 331 331 331 330 330 331 328 325 319 318 318 320 322 326 329 331 335 335 337 337 337 338 335 331 332 334 334 335 337 326 325 326 330 334 334 334 334 333 331 330 328 327 325 324 322 321 321 322 323 324 324 322 319 316 316 316 316 316 317 318 318 318 318 318 318 318
333 333 332 332 331 333 333 332 331 331 331 330 330 329 330 327 322 321 319 320 322 327 328 330 334 336 334 335 337 337 334 328 331 332 332 333 334 320 321 322 326 328 326 326 328 330 330 330 328 325 323 320 319 319 320 321 322 322 321 318 316 315 316 316 316 316 317 317 317 317 318 318 318 318
332 331 331 333 332 333 333 333 331 331 330 330 330 329 329 328 325 324 324 319 325 327 329 330 330 334 333 333 336 334 333 330 331 332 331 332 323 322 323 320 320 320 318 319 320 324 328 327 325 322 319 317 316 317 318 319 318 317 315 315 314 314 315 315 315 316 316 317 317 317 317 317 317 317
332 331 331 332 332 333 333 332 332 332 331 330 329 329 329 328 329 327 322 320 320 326 328 329 329 330 332 332 333 332 332 329 325 331 330 327 322 328 326 319 318 317 316 317 317 319 323 324 322 318 316 315 315 316 315 315 313 312 312 312 312 312 313 314 314 315 315 316 316 317 317 317 317 316
333 332 332 332 333 333 332 331 332 331 331 330 329 329 329 329 329 326 323 322 322 325 325 327 329 330 331 333 332 332 331 329 328 324 326 326 327 325 326 323 315 315 314 313 312 313 314 315 316 316 315 314 312 311 310 309 311 311 311 310 310 308 310 312 313 313 314 314 315 316 316 316 316 316
331 331 331 331 331 333 332 332 331 332 332 331 330 329 328 328 329 329 326 324 324 323 323 324 326 330 329 333 332 333 329 326 325 323 321 322 323 323 324 323 320 313 313 312 311 310 309 307 307 309 311 307 303 303 303 304 306 308 308 307 305 304 305 308 311 312 312 313 313 314 315 315 315 315
330 328 329 329 331 332 332 332 332 332 331 331 330 330 330 329 330 330 330 327 323 323 325 325 325 327 327 330 331 332 332 327 325 321 321 320 319 320 321 321 318 310 310 310 309 307 306 305 304 304 305 303 302 302 302 302 302 302 303 302 302 302 303 304 307 309 310 310 310 310 312 313 313 314
328 329 327 328 329 330 329 331 331 331 331 330 330 330 330 329 330 330 329 329 328 326 324 322 325 325 328 329 329 332 330 327 325 322 320 319 318 318 318 318 316 311 309 308 307 306 305 304 303 303 303 303 302 302 302 302 301 301 301 301 301 301 301 301 302 305 306 306 305 305 307 310 313 313
327 325 326 328 330 329 329 329 330 331 331 330 330 329 329 329 329 330 330 329 328 327 324 323 322 325 328 329 329 330 327 325 324 322 319 318 317 318 317 315 313 310 308 308 307 306 305 304 303 303 303 302 302 302 302 302 302 301 301 301 301 301 301 301 301 301 301 302 302 302 303 304 310 313
324 326 327 328 329 328 327 328 330 330 330 331 330 329 329 329 329 329 329 329 328 326 326 326 321 323 325 325 325 328 328 325 321 319 318 318 318 315 314 314 313 313 312 311 310 307 306 305 304 303 303 303 302 302 302 302 302 302 302 301 301 300 300 300 300 299 299 300 300 300 300 302 306 311
317 320 323 326 329 328 328 328 329 329 329 329 329 330 329 330 329 328 329 328 327 325 325 324 323 323 324 326 325 323 328 327 323 318 315 314 315 316 315 313 315 315 313 310 309 309 309 307 307 303 303 303 303 303 303 303 304 304 302 301 300 300 300 300 300 299 299 299 298 298 298 299 303 309
313 314 316 318 322 327 328 328 328 329 328 330 329 330 330 330 329 328 328 327 326 325 324 324 321 322 323 322 320 321 324 323 321 320 317 313 313 313 315 316 314 313 313 310 309 308 308 308 306 304 305 305 305 305 305 305 306 306 303 301 300 299 300 300 300 299 299 299 299 298 298 297 299 303
312 313 314 315 317 320 324 322 322 325 326 326 327 329 329 329 328 328 327 327 326 325 324 322 320 321 320 321 318 317 319 321 321 321 320 316 315 315 313 314 316 314 311 310 308 307 309 308 308 308 307 307 307 306 306 306 305 304 302 300 299 299 299 299 299 299 299 299 299 298 298 297 298 300
312 313 313 315 317 317 317 317 314 311 312 317 323 326 328 328 327 327 326 326 326 325 323 322 320 319 319 320 318 319 320 324 324 321 318 314 313 311 311 311 313 315 313 309 307 307 308 309 307 307 306 310 310 308 308 307 304 302 300 299 299 299 299 299 299 298 298 298 298 298 297 297 297 298
312 313 314 315 317 317 317 316 311 309 309 309 310 311 314 321 327 327 325 326 326 324 324 323 321 321 320 322 321 321 321 320 322 322 319 316 311 309 308 307 307 313 314 310 308 307 309 308 306 308 309 310 312 313 311 302 301 300 300 300 299 299 299 298 298 298 297 297 297 297 297 296 296 297
313 313 314 316 317 318 319 319 320 317 313 308 307 307 308 307 307 311 323 326 325 325 325 324 322 322 321 321 321 320 317 317 319 320 318 314 311 310 310 310 307 312 315 311 307 305 307 309 308 306 304 306 311 313 304 300 300 299 299 299 298 298 298 298 297 297 297 296 296 296 296 296 296 296
313 314 314 315 317 318 321 321 321 321 321 315 310 309 309 309 307 303 301 306 325 329 326 325 324 323 323 322 322 322 320 319 318 318 315 313 312 312 311 310 307 309 314 311 307 304 304 305 303 303 302 304 309 309 303 301 300 299 298 298 298 297 297 297 297 296 296 296 296 295 295 295 295 295
313 313 314 314 314 316 317 319 321 322 322 322 321 322 321 320 320 312 305 304 303 311 324 327 326 326 325 324 324 324 319 318 317 316 314 312 311 311 312 310 309 308 312 310 306 302 300 301 301 300 300 303 304 306 302 299 299 298 298 298 297 297 297 296 296 296 296 296 295 295 295 294 294 294
311 312 313 313 313 315 316 317 318 319 320 321 322 322 322 323 323 323 324 321 320 319 319 323 327 328 328 327 327 325 321 320 320 319 317 313 311 308 305 305 306 305 306 308 307 300 298 301 298 297 298 300 301 303 299 298 298 298 298 297 297 297 296 296 296 296 296 296 295 295 295 294 294 294
310 311 311 312 312 313 314 314 306 310 316 319 319 319 321 323 324 324 323 315 315 323 324 324 325 327 329 319 327 325 322 321 318 313 309 306 304 304 304 301 302 303 302 302 303 299 297 300 296 296 298 299 299 301 302 299 298 298 297 297 297 296 296 296 295 295 295 295 295 295 295 294 294 295
308 309 310 310 312 313 314 310 301 300 305 312 313 315 318 321 322 323 324 312 305 305 305 305 305 304 303 302 305 306 307 315 314 310 307 305 305 304 301 300 299 300 300 300 302 298 295 297 297 296 298 299 298 299 300 301 298 297 297 297 296 296 296 295 295 295 295 295 295 295 294 294 295 296
307 308 312 314 312 312 311 303 298 297 302 307 311 313 314 317 319 321 323 321 314 303 301 300 300 300 300 302 301 303 304 304 309 313 309 307 307 305 302 299 300 298 299 299 301 297 296 297 297 295 296 298 299 299 299 300 299 297 297 296 296 296 296 295 295 295 295 295 295 295 294 294 295 299
306 307 308 309 309 309 306 296 295 294 300 305 309 311 313 314 316 320 321 318 316 314 313 314 315 311 309 313 313 313 303 304 312 316 315 309 308 306 303 300 298 297 298 299 301 296 295 295 295 295 293 293 296 298 300 299 299 299 299 298 298 296 296 296 295 294 294 294 295 295 294 294 296 300
306 306 307 308 299 295 294 294 294 294 294 301 306 309 311 312 314 313 312 314 314 314 315 316 316 316 315 313 312 312 309 310 315 312 313 310 310 308 302 300 300 299 298 300 302 298 296 296 293 295 295 292 291 296 298 298 299 299 299 298 298 296 297 296 295 294 294 294 294 294 294 294 295 300
303 304 306 307 302 296 295 294 293 293 294 297 305 309 310 311 309 307 310 311 314 312 311 311 310 309 309 310 309 309 310 311 312 311 310 311 312 307 302 300 299 297 299 301 298 298 294 295 293 292 293 295 296 295 295 297 298 299 298 298 296 297 298 297 297 296 294 293 293 293 294 294 294 297
303 304 305 305 301 294 293 292 293 293 294 295 307 306 297 296 296 309 310 310 309 309 308 307 307 306 306 306 307 308 309 310 309 308 307 306 306 306 305 303 299 297 297 300 296 299 296 294 294 293 293 294 295 295 293 295 297 297 298 297 297 297 298 297 296 296 297 297 296 294 294 293 293 294
303 304 303 302 300 292 292 292 292 293 294 299 300 292 294 295 297 304 307 306 307 306 305 305 304 304 305 304 304 306 306 306 307 307 306 306 305 305 305 305 305 304 302 301 302 301 298 295 296 295 293 294 293 294 294 293 293 296 296 296 296 296 296 297 296 295 295 295 295 293 293 293 292 292
303 302 301 299 291 292 292 291 291 292 294 298 293 294 295 297 300 306 305 304 304 303 302 302 301 300 301 302 302 302 303 304 304 303 303 303 303 302 302 302 302 302 301 301 299 298 298 296 295 296 295 294 292 292 292 296 296 295 293 295 295 295 295 296 296 296 295 295 295 295 296 295 296 296
302 298 293 291 292 294 294 293 294 294 294 292 293 295 298 306 305 304 304 303 303 302 300 300 299 299 300 300 300 301 301 300 301 300 300 300 301 301 301 300 300 301 300 298 297 297 297 297 295 295 296 296 295 295 295 293 294 294 294 292 291 293 294 295 295 294 294 294 294 294 294 294 294 295
295 292 291 292 293 295 298 301 300 299 300 294 297 298 301 304 303 303 303 302 301 300 300 300 299 299 300 299 300 301 302 300 299 299 299 299 299 299 299 298 298 298 298 299 297 296 297 297 296 296 296 297 297 296 296 294 293 295 294 294 293 293 292 293 293 293 294 293 294 294 294 295 295 295
298 297 298 297 295 294 293 295 296 298 297 301 304 304 304 303 303 302 301 301 300 300 299 299 299 300 300 301 300 299 299 298 299 299 299 298 298 298 298 297 296 296 297 297 297 296 297 296 297 297 295 296 296 296 296 296 294 293 294 294 293 289 291 292 293 292 293 293 294 294 294 294 294 295
301 300 297 297 302 302 301 301 301 302 303 303 302 304 304 305 305 305 304 302 300 300 300 300 300 299 300 299 299 298 298 298 298 299 298 298 297 298 297 296 294 295 295 295 296 298 298 298 298 298 298 296 293 293 296 296 294 293 293 294 293 293 293 292 292 292 293 294 292 291 292 293 292 293
299 299 301 302 302 302 300 300 300 301 303 303 303 304 304 303 303 302 300 299 299 299 299 298 299 299 300 299 299 298 297 297 298 299 298 298 298 298 298 295 295 294 293 294 294 294 294 295 297 297 297 298 297 296 294 292 292 293 292 292 292 291 291 291 292 292 292 292 291 291 291 292 292 293
298 299 300 301 302 302 301 300 300 301 302 301 302 302 299 301 302 301 300 300 299 299 299 299 298 299 299 298 299 298 297 297 298 298 296 297 298 296 296 294 293 294 294 293 293 293 293 293 294 294 295 295 296 297 297 294 291 292 292 292 291 290 291 292 291 292 292 292 291 289 290 290 291 292
298 298 299 299 300 301 302 301 301 301 300 300 300 301 301 302 300 298 300 299 298 298 298 299 299 299 299 299 298 298 297 297 297 298 297 298 297 296 294 293 291 292 293 292 292 292 293 293 294 293 293 294 294 294 292 295 293 291 291 291 291 291 290 291 291 291 291 290 290 290 290 290 290 291
292 297 298 298 300 301 302 302 302 301 301 300 300 301 301 302 302 301 299 299 299 298 297 298 296 299 299 298 297 297 296 295 296 296 296 297 295 294 293 292 291 291 292 293 293 293 294 294 294 293 291 291 290 288 290 291 293 292 290 289 290 291 291 291 291 291 290 290 290 290 288 288 289 291
293 294 297 298 299 300 302 302 302 301 300 300 299 301 302 302 301 301 299 299 300 298 299 298 297 298 297 297 296 294 295 295 295 295 295 295 294 293 291 291 290 291 291 292 293 293 294 293 294 293 291 289 288 287 289 293 291 292 295 291 290 291 291 291 290 290 290 290 290 289 289 289 289 290
295 294 295 296 298 299 300 302 300 300 300 300 299 299 300 301 301 301 300 299 298 298 297 298 296 296 297 296 297 297 296 296 296 295 294 294 293 292 291 290 289 290 291 291 292 292 294 293 293 293 292 290 288 287 286 288 289 291 292 293 290 290 291 290 289 289 289 290 289 290 289 289 290 291
295 294 295 295 296 298 299 300 300 300 300 300 299 298 299 300 300 299 299 299 299 299 299 300 299 297 296 296 296 297 297 296 295 294 293 293 293 292 290 290 289 290 291 291 291 292 292 292 292 292 293 292 291 291 291 288 287 290 290 291 292 291 290 290 289 289 289 289 289 289 290 291 290 287
295 295 295 295 296 297 299 300 300 300 299 299 298 299 299 299 299 299 299 298 298 298 299 299 298 298 300 298 295 297 298 298 297 295 294 293 293 293 291 291 290 290 291 291 291 291 292 293 293 293 293 295 295 294 291 290 288 287 289 291 291 292 291 290 289 289 288 289 289 288 289 290 289 290
296 296 296 295 296 297 298 299 300 300 300 299 299 297 299 298 298 298 299 299 296 298 298 298 298 297 298 298 297 296 293 293 296 296 295 293 290 291 290 287 290 291 290 290 292 292 292 295 292 286 290 290 289 291 290 289 287 287 288 289 290 290 291 291 291 290 289 289 289 288 288 288 288 289
297 297 297 298 297 297 298 299 299 299 300 300 299 298 298 298 298 296 297 294 298 298 298 298 297 295 297 298 297 292 294 292 292 294 295 294 293 291 288 290 291 291 292 290 291 292 293 290 288 290 291 291 289 290 288 288 287 287 287 287 288 288 289 289 290 290 291 290 288 286 286 286 287 286
296 297 297 297 297 298 299 299 300 300 301 300 299 299 298 297 297 297 297 297 297 296 296 296 297 296 296 295 296 294 293 292 293 295 294 295 294 292 290 291 293 293 293 295 294 293 289 290 290 290 291 291 289 290 288 287 287 286 285 286 287 287 288 288 287 288 289 290 290 290 290 288 286 284
297 296 297 297 297 298 299 299 300 300 301 301 300 299 297 296 296 296 297 297 296 296 296 295 293 294 295 293 294 292 293 294 295 295 293 292 293 294 293 292 291 293 293 292 291 290 289 289 290 291 290 289 289 288 288 285 285 285 287 286 284 284 287 287 287 287 287 287 288 289 289 288 289 289
296 297 297 297 297 298 298 298 298 298 298 299 299 298 296 296 294 296 297 297 296 296 294 293 292 292 293 292 291 292 292 292 293 293 293 293 293 293 291 293 290 291 291 291 290 288 288 288 288 289 290 289 288 289 288 287 287 283 283 283 284 285 286 285 286 286 287 288 288 287 288 288 289 288
Wind_Speed
6 7 8 6 7 7 5 6 6 6 4 4 4 5 5 4 4 4 3 4 4 3 2 2 1 1 1 1 1 3 3 5 6 4 4 5 6 9 11 12 11 12 12 13 14 14 15 14 14 14 14 14 13 13 13 13 13 13 14 14 14 13 11 12 12 12 12 12 12 12 12 12 12 12
6 7 6 6 6 6 6 6 6 6 6 5 4 4 5 7 8 5 4 6 3 4 2 3 2 1 1 1 1 2 3 6 7 5 6 5 7 10 12 12 12 12 11 11 11 13 14 15 15 14 14 14 13 13 13 13 13 13 13 13 11 10 11 12 12 12 12 12 12 12 12 12 12 12
6 8 7 6 7 7 7 7 5 6 6 6 4 5 7 7 7 6 2 5 4 4 4 4 3 2 1 1 1 2 2 5 6 5 5 5 9 11 10 13 13 13 13 11 11 11 12 14 14 14 14 13 13 13 13 13 13 12 11 10 10 10 11 12 12 12 13 13 12 12 12 12 12 12
6 8 8 7 7 6 6 6 7 7 6 6 6 5 6 8 7 5 5 8 11 3 5 3 3 2 1 0 3 3 3 3 3 3 5 8 10 9 7 11 13 13 13 13 12 12 12 12 13 14 14 13 13 13 13 13 12 11 11 10 9 10 10 13 13 13 13 13 12 12 12 12 12 12
7 7 8 8 8 8 8 8 7 8 7 6 6 5 5 6 6 8 7 7 11 6 3 4 3 2 2 1 2 5 5 4 4 3 4 7 7 6 7 7 11 13 13 13 13 13 13 12 12 13 14 13 13 13 11 11 11 11 11 10 9 10 11 12 13 13 13 13 13 13 13 12 12 12
5 7 7 8 8 7 9 8 8 8 7 6 6 6 6 7 6 9 9 11 10 10 3 4 3 3 1 3 2 5 7 5 5 4 4 3 5 5 5 5 5 11 13 13 13 13 13 13 13 13 13 12 12 12 12 12 11 10 9 9 9 10 11 11 12 13 13 13 13 12 12 11 12 13
6 7 8 8 7 5 6 6 6 6 8 6 8 9 7 7 6 7 9 8 8 9 8 5 5 5 4 5 4 4 5 6 6 5 7 6 6 5 6 5 3 8 12 13 12 13 13 12 13 12 12 11 11 11 12 11 10 10 9 9 9 9 10 10 10 12 12 12 12 12 12 12 12 13
6 6 7 8 8 7 8 8 7 7 7 7 8 8 7 8 7 6 7 9 8 7 7 4 6 4 5 4 0 3 4 6 6 6 7 7 6 4 4 5 5 6 11 12 12 12 12 12 12 12 11 10 10 10 11 11 10 9 8 8 8 8 9 9 9 9 10 10 11 11 11 11 12 12
5 5 9 9 8 8 9 9 8 6 8 7 7 8 7 7 7 5 6 7 7 7 8 5 2 2 3 1 3 6 6 5 7 6 7 7 6 5 5 4 4 7 10 11 11 10 10 10 11 11 10 9 9 9 9 9 8 8 8 7 7 7 7 8 8 8 9 9 10 11 10 10 10 13
5 5 8 9 9 8 9 8 8 7 8 7 7 9 8 7 6 7 8 8 8 8 9 7 4 4 5 4 3 6 8 8 8 7 6 5 4 5 5 3 4 4 4 4 5 7 7 8 9 9 8 8 8 8 8 8 8 7 6 6 5 5 6 6 6 8 8 9 10 11 10 10 10 12
6 6 7 8 8 9 9 9 9 9 9 8 9 9 9 8 7 8 8 8 8 8 9 6 6 6 6 4 5 4 7 8 8 11 8 6 5 3 5 7 3 4 5 5 6 6 5 7 6 7 7 6 7 7 7 6 6 6 5 4 3 3 4 5 6 7 9 9 10 10 10 10 10 10
6 7 7 8 9 8 8 9 10 10 9 7 8 8 8 7 8 8 8 8 8 8 8 8 7 5 5 2 4 3 5 6 4 7 8 11 9 8 5 3 8 5 5 6 4 5 7 6 8 8 6 5 5 5 5 5 4 3 3 2 2 2 3 5 6 7 9 9 9 9 9 9 10 10
6 7 7 8 7 9 13 15 12 11 11 10 9 7 6 7 8 9 8 8 7 7 8 6 4 5 5 6 7 6 6 9 11 10 7 9 8 7 6 4 2 5 7 5 5 4 3 5 4 4 3 2 4 3 3 3 4 4 2 2 3 5 6 6 7 8 10 9 8 8 9 9 9 9
7 8 8 8 13 15 15 15 15 14 13 13 10 10 8 8 8 8 8 7 7 8 8 8 7 7 8 8 10 11 12 10 5 8 10 10 8 7 5 2 3 4 6 7 6 3 1 4 4 3 3 2 2 2 2 2 2 3 5 7 8 9 9 8 9 10 10 9 8 8 8 9 9 9
7 7 8 8 11 12 12 11 11 12 14 14 16 16 15 12 10 9 8 8 9 9 9 8 8 9 10 10 9 11 9 7 11 11 12 11 10 11 11 10 2 4 7 6 6 4 1 3 5 3 2 1 1 1 2 3 5 9 10 11 11 10 10 9 10 10 10 9 7 7 8 8 9 9
5 7 8 7 7 8 9 10 10 10 12 14 15 17 17 16 17 14 11 9 9 9 8 9 10 10 10 9 9 8 6 9 9 9 10 12 14 13 12 11 11 7 9 8 7 5 1 2 4 3 1 0 1 2 4 7 10 11 12 12 11 11 10 10 10 10 10 8 7 7 7 8 9 9
5 5 7 7 6 6 12 11 9 9 10 10 13 15 17 17 17 17 17 15 12 10 11 11 11 12 10 11 11 11 12 9 11 9 9 10 11 12 13 10 7 10 11 8 7 6 3 2 3 3 2 1 1 4 6 10 10 11 12 12 11 11 11 10 9 9 9 8 6 6 7 8 9 9
5 5 6 6 7 7 8 9 9 10 10 10 10 11 9 10 13 16 16 19 19 14 10 10 11 10 11 12 10 11 10 11 12 12 12 12 10 11 10 5 6 6 8 10 9 4 3 3 4 4 2 2 3 3 8 11 10 11 12 12 12 11 10 10 9 9 9 8 7 6 6 7 9 9
5 5 6 6 7 7 7 7 10 11 11 11 10 10 12 12 11 11 11 11 10 11 10 11 11 10 10 11 10 9 11 14 13 14 14 13 9 6 8 8 8 8 1 6 8 6 5 2 5 4 3 3 5 4 7 10 10 11 12 12 11 11 10 9 9 9 9 9 7 7 6 7 9 10
6 6 6 6 7 7 7 10 12 12 11 12 12 13 12 11 11 11 12 13 12 11 11 11 12 11 10 9 10 10 12 11 8 8 8 10 10 10 8 7 6 8 4 1 5 7 6 2 7 4 2 3 6 4 4 6 8 10 11 12 11 10 10 9 9 8 9 9 8 7 7 7 9 10
6 6 6 6 6 7 7 9 12 12 12 9 12 13 13 12 11 10 8 12 15 15 14 13 13 13 13 11 11 14 18 15 13 11 10 10 11 11 10 7 7 8 6 4 4 9 7 5 5 6 3 3 5 5 4 3 5 9 11 11 11 11 10 9 9 8 9 9 8 7 7 7 7 9
7 7 9 7 6 7 8 9 10 13 12 10 11 12 13 13 12 11 9 6 6 6 7 9 11 13 13 13 11 14 18 17 18 15 15 14 13 13 14 13 10 7 5 4 5 8 8 6 7 9 4 5 3 3 3 3 4 7 9 10 10 10 10 10 9 9 9 9 9 8 7 6 6 6
6 6 6 8 7 6 8 11 12 13 10 8 9 11 12 13 12 9 7 8 8 7 7 8 9 10 10 9 7 9 16 19 18 16 15 13 14 13 10 11 9 5 2 6 7 9 6 9 6 10 6 4 2 1 1 2 2 2 4 5 6 8 10 10 10 9 9 9 9 9 8 5 6 6
6 7 6 5 5 6 8 11 12 13 12 9 9 10 9 11 11 3 3 4 5 7 7 8 8 9 5 4 5 5 6 9 9 4 8 15 16 15 15 15 17 14 9 7 7 9 6 7 8 1 3 10 6 5 1 2 1 1 3 5 4 5 7 9 8 9 8 8 9 9 9 7 5 6
6 7 7 6 4 7 10 11 12 13 13 11 9 9 8 7 4 0 3 3 7 5 5 5 4 3 3 5 5 6 9 10 11 7 7 11 10 14 14 11 8 5 4 8 9 10 8 8 8 3 3 4 6 8 2 2 1 1 1 3 5 3 4 5 5 5 5 6 7 9 9 9 8 6
7 8 6 5 6 8 10 10 10 10 9 8 6 6 6 6 6 4 3 3 3 3 3 3 3 3 5 5 6 7 9 8 6 7 8 10 10 6 12 16 13 7 5 8 12 9 11 8 9 7 5 6 4 5 7 3 2 1 2 1 3 3 3 5 5 4 3 3 3 5 6 9 9 7
7 6 5 4 7 8 9 7 7 7 6 5 4 4 2 2 1 1 1 2 3 3 3 3 3 3 4 5 6 7 7 7 9 8 9 11 11 9 5 3 4 8 10 11 8 7 10 8 7 10 8 8 10 5 6 7 5 2 3 2 3 2 2 3 4 3 2 3 3 3 6 8 8 8
7 6 5 4 7 6 4 4 4 6 5 2 3 2 3 5 4 2 3 2 3 4 4 4 4 4 4 3 3 3 2 3 6 7 8 8 9 9 7 6 8 8 10 9 7 6 8 10 7 3 10 13 12 10 9 1 5 6 6 2 2 2 2 2 3 3 3 2 2 2 3 4 3 3
8 5 3 5 3 0 0 1 3 4 3 4 5 4 4 5 3 3 3 3 3 5 5 5 5 5 5 5 4 4 6 6 7 9 8 9 9 10 10 9 8 8 8 6 5 4 7 9 9 7 7 8 8 6 6 8 7 6 6 7 4 2 1 2 2 3 3 2 3 3 3 2 2 2
8 5 6 4 3 3 2 0 2 2 0 6 4 6 6 3 4 3 3 4 5 6 6 5 5 5 6 6 5 4 3 7 8 8 8 9 9 11 11 11 8 7 7 5 5 5 6 7 9 9 8 6 6 7 6 8 5 6 5 4 6 3 1 1 2 1 2 3 3 3 2 1 2 1
4 3 2 2 4 5 5 4 3 3 2 4 2 3 3 3 4 4 4 3 5 6 7 7 6 4 4 7 9 7 6 7 5 7 10 9 7 9 9 10 8 7 6 6 5 4 6 7 7 9 10 7 6 6 6 6 7 6 3 4 6 5 4 2 1 2 2 2 2 2 2 2 2 1
3 3 2 4 4 4 4 3 2 1 2 2 1 2 3 4 4 6 10 9 5 5 5 6 6 6 6 6 7 8 8 7 5 5 9 10 8 6 8 9 7 6 7 5 5 6 6 4 4 5 7 9 9 5 5 5 7 6 5 3 3 3 3 4 3 2 2 2 3 3 2 1 2 1
2 2 3 3 3 3 4 3 3 2 1 1 0 2 3 4 4 3 2 6 6 4 5 6 6 6 6 7 7 8 8 6 5 5 8 8 10 3 4 10 9 10 9 6 4 4 5 5 5 5 5 5 7 8 8 6 4 4 6 5 4 4 3 2 3 3 3 2 2 2 2 1 0 0
3 3 3 3 3 3 3 4 4 3 1 2 1 1 2 4 4 4 3 3 5 5 4 3 5 6 7 8 9 9 8 6 4 4 8 7 7 7 6 8 7 5 7 7 6 6 4 5 6 6 6 6 5 4 2 7 6 4 4 5 5 5 4 3 3 3 3 2 3 3 2 2 1 0
5 4 3 3 3 3 4 4 4 4 3 2 3 3 0 2 4 5 5 4 4 5 6 5 3 5 6 7 8 10 9 8 5 3 4 5 5 7 8 8 7 7 7 6 6 5 5 6 6 6 5 5 5 4 7 4 7 5 4 3 3 5 4 3 4 3 3 2 2 3 2 1 0 0
4 4 4 4 4 4 5 4 4 4 3 4 4 3 2 2 2 5 5 5 5 4 4 5 5 5 5 6 7 8 9 8 6 6 6 6 7 6 6 7 8 6 6 5 6 5 6 6 6 7 7 6 5 3 3 5 3 6 7 5 3 3 3 3 2 2 3 3 3 3 3 2 1 0
5 4 4 4 4 4 4 4 4 4 3 3 4 5 4 4 3 2 4 6 6 5 3 2 3 3 4 5 6 6 7 8 7 6 6 6 6 7 7 6 6 6 7 5 6 5 5 6 5 6 7 6 7 4 4 1 3 3 4 6 4 3 4 4 3 3 2 2 3 3 2 3 2 2
5 4 4 4 4 4 3 3 4 5 5 5 5 4 4 3 4 4 2 2 5 6 5 4 2 2 4 5 5 5 5 5 6 5 6 6 6 6 7 8 5 5 5 5 4 5 5 6 6 7 7 7 5 4 4 1 0 2 1 4 6 5 4 4 3 3 2 2 1 1 1 2 2 1
5 4 5 5 4 4 4 4 6 6 5 5 4 4 3 2 3 4 5 5 3 4 5 5 4 3 4 5 5 6 6 6 6 6 6 6 7 7 6 7 6 5 6 5 2 3 4 6 6 7 7 7 8 8 7 6 4 3 2 2 4 6 3 4 4 2 2 2 2 1 2 2 2 0
6 5 4 4 4 4 4 4 4 4 5 5 4 3 4 5 4 4 4 5 5 5 4 5 6 5 4 4 5 4 4 6 6 6 7 6 6 8 8 7 8 7 6 6 5 4 4 5 7 7 7 6 3 2 3 3 3 1 1 1 2 3 5 4 4 4 2 2 2 1 1 0 0 1
5 5 5 5 4 4 5 4 5 4 4 4 5 5 5 5 5 5 5 5 4 6 6 4 5 6 6 5 5 6 5 4 4 4 5 6 6 7 8 7 7 6 6 8 6 5 7 6 3 6 6 5 5 6 4 4 4 4 3 3 2 4 4 1 3 4 3 3 3 2 2 1 1 1
6 6 5 4 5 5 5 5 5 5 5 4 4 4 5 5 6 7 5 5 5 6 5 5 5 4 5 6 5 4 6 4 4 5 5 5 5 5 4 6 7 6 6 5 8 7 3 5 6 7 6 6 4 4 3 4 3 3 2 1 1 2 3 3 1 2 2 4 4 2 1 1 2 1
6 6 5 5 5 4 4 5 5 5 5 4 4 4 4 4 3 6 5 6 6 5 6 6 5 6 5 5 6 5 6 6 6 7 6 6 6 7 5 6 7 8 8 6 3 3 4 4 5 6 5 4 3 3 3 4 2 3 2 2 3 1 0 2 2 0 3 6 7 6 3 2 2 2
6 6 6 5 5 5 5 5 5 5 5 5 4 4 4 5 6 6 6 7 7 7 6 4 4 5 5 5 5 5 5 6 8 8 6 6 8 8 8 8 7 6 5 2 3 3 3 4 4 6 6 4 3 3 3 4 2 2 3 2 1 1 2 1 0 1 2 4 7 9 10 9 8 4
6 6 6 5 5 5 5 5 5 5 5 4 4 5 5 5 5 5 5 6 7 7 5 5 6 5 5 5 6 7 7 5 6 6 6 5 5 5 5 5 5 5 4 5 4 3 2 3 2 2 2 2 2 3 4 4 4 4 3 3 4 2 2 1 2 2 1 1 4 6 8 8 10 10
Wind_Direction
246 237 231 232 247 248 236 234 231 225 207 206 193 176 182 148 241 278 284 281 272 300 211 249 293 323 317 149 142 153 153 150 152 136 128 127 132 131 125 125 124 123 122 122 121 119 116 111 107 103 98 93 88 83 80 79 77 77 75 74 73 70 67 67 63 61 60 57 55 54 54 55 54 54
239 244 225 226 235 248 244 246 232 232 226 206 192 171 165 177 202 217 258 282 205 276 270 233 263 321 1 16 119 155 143 157 155 143 136 136 139 134 128 127 124 120 121 123 125 124 118 113 107 101 95 91 87 83 80 78 77 77 75 72 66 65 67 65 63 61 59 57 55 54 54 54 54 54
241 245 243 241 237 237 246 249 242 237 228 230 190 176 172 205 215 199 166 281 261 175 257 259 219 259 322 20 101 111 124 159 158 142 136 132 137 130 125 127 124 123 123 120 118 114 114 111 106 100 96 92 88 85 82 81 79 76 69 58 59 63 65 64 63 61 58 57 56 57 56 56 56 56
222 232 235 236 236 232 239 246 253 256 243 230 220 187 186 204 207 136 187 235 264 213 230 269 274 250 278 56 137 117 120 100 103 129 127 136 135 131 128 127 128 127 122 117 112 110 110 109 106 103 99 96 92 89 86 84 81 77 73 64 55 54 58 63 61 59 57 57 58 58 58 57 57 58
235 235 232 235 238 237 247 250 250 252 251 239 230 209 194 204 178 175 187 229 257 270 211 231 249 298 290 215 162 141 148 144 136 112 122 146 144 126 130 129 129 126 119 114 110 109 107 106 105 104 101 94 92 92 91 90 87 83 78 71 57 55 50 55 59 58 57 55 56 57 57 57 57 56
256 260 247 247 248 235 239 235 239 241 247 244 244 232 213 211 196 185 182 208 225 248 223 238 230 267 228 234 200 170 162 155 138 130 145 79 66 98 100 114 118 120 117 115 114 112 109 107 105 105 104 100 99 98 96 92 89 82 75 71 67 60 53 48 53 56 53 52 52 54 57 55 55 58
259 257 268 272 272 263 249 239 236 243 250 245 247 248 229 226 212 190 199 199 219 231 242 201 209 211 217 211 199 180 177 151 151 112 63 55 58 55 90 93 96 116 115 116 116 115 114 113 112 111 109 108 106 104 102 99 96 91 85 80 71 64 57 51 45 51 52 50 49 48 48 53 56 61
267 261 253 255 257 256 259 257 253 242 243 247 249 250 236 234 231 197 197 213 226 227 236 220 200 194 188 224 125 164 143 140 123 105 101 99 109 106 103 117 134 125 119 117 117 117 119 119 118 115 112 112 110 107 105 104 102 99 94 82 71 65 60 55 53 50 49 48 46 43 38 40 56 67
300 300 290 278 258 250 252 255 253 249 245 243 237 240 243 238 232 211 198 214 222 235 233 231 205 190 212 160 162 162 147 126 109 104 118 136 132 126 102 102 105 115 110 110 114 119 122 121 119 116 116 116 113 104 97 94 88 77 66 62 63 63 62 60 59 60 56 52 51 48 41 42 53 72
310 284 269 270 274 276 259 257 257 250 248 241 234 236 239 237 230 231 223 217 220 226 239 220 191 202 198 198 192 181 160 145 127 111 108 114 122 123 123 129 135 147 133 135 116 114 114 112 112 116 119 119 108 99 91 85 81 75 69 62 54 51 57 60 62 66 64 59 56 54 49 48 57 77
314 297 291 289 275 261 270 276 268 254 243 235 240 242 247 237 232 234 229 221 219 221 230 229 210 199 213 205 186 169 172 161 153 149 140 140 158 153 155 144 137 128 111 85 101 117 123 124 120 111 112 113 109 104 99 88 84 81 77 67 58 51 56 65 67 70 70 64 61 59 57 55 60 79
305 301 299 300 299 291 268 260 270 289 281 260 244 234 230 234 233 234 231 226 220 218 218 218 212 195 189 186 12 53 142 146 167 182 164 161 168 172 182 187 156 152 133 139 130 119 112 102 101 103 104 107 108 105 98 96 94 99 103 84 76 96 85 81 78 74 72 67 63 63 64 68 72 80
301 299 297 294 294 296 300 306 297 272 268 282 280 256 232 236 234 235 228 227 220 215 216 214 183 173 184 180 156 158 191 191 192 183 180 172 163 144 144 165 181 148 145 138 130 140 153 127 121 125 126 132 122 98 118 112 103 91 75 59 86 102 101 98 87 77 73 68 64 65 69 76 86 93
298 294 292 289 292 293 292 292 294 292 278 265 262 268 259 239 236 232 230 223 221 219 220 211 192 192 201 186 187 190 200 195 141 166 179 162 151 132 130 116 191 180 152 144 142 143 173 132 120 125 135 116 116 141 136 91 70 81 94 104 109 106 105 98 87 75 71 65 59 63 70 80 93 103
301 299 292 285 289 291 287 283 276 282 282 271 265 266 265 262 250 233 228 225 215 223 222 212 205 207 207 204 194 203 195 179 181 186 181 168 156 166 162 182 142 217 173 146 134 142 142 146 135 136 129 134 161 135 89 104 89 103 109 108 105 106 102 93 81 74 70 63 58 64 73 80 94 108
275 291 296 292 286 283 277 277 274 263 258 260 259 256 257 259 257 253 239 226 224 219 223 217 210 208 211 203 194 197 165 189 186 186 178 176 176 178 188 178 183 167 174 147 142 130 126 128 117 116 83 103 198 124 118 102 102 108 109 110 110 105 96 86 78 72 71 66 62 66 73 81 93 108
280 297 302 300 293 292 290 288 280 274 278 271 263 260 252 246 246 246 248 248 241 224 225 224 220 212 210 212 208 193 194 183 179 174 182 187 191 188 186 184 143 163 177 137 134 143 147 128 122 110 31 73 128 125 119 109 107 111 114 113 108 102 93 86 79 75 73 72 67 66 72 79 89 102
272 279 288 296 301 300 302 298 290 279 271 265 264 267 257 246 244 244 240 240 245 248 238 226 226 215 207 216 208 199 179 168 181 180 191 188 188 191 191 123 92 107 155 158 129 101 142 127 116 100 65 81 98 105 121 114 113 114 115 113 108 102 96 90 84 78 78 77 71 67 69 77 85 92
265 276 277 282 284 290 291 289 291 290 288 288 281 263 258 250 244 242 239 235 233 234 231 244 241 234 216 221 217 193 181 186 187 184 185 185 181 123 76 70 116 137 43 151 139 140 150 158 95 92 103 103 93 96 98 104 111 112 114 113 110 104 97 89 81 75 76 76 72 71 71 77 80 83
253 255 261 272 279 282 282 287 286 285 285 281 278 277 269 262 250 239 231 237 238 229 229 232 238 243 243 226 218 192 183 185 142 106 90 96 118 133 128 125 159 154 167 127 124 126 146 174 119 119 89 105 96 86 94 81 100 111 115 115 111 103 97 87 77 70 69 72 72 74 80 83 85 83
257 255 257 258 269 278 280 284 290 292 296 291 287 284 274 258 253 253 241 223 228 233 235 240 251 262 276 279 237 197 186 181 149 128 128 153 149 144 144 140 157 177 173 186 174 132 131 183 143 119 99 98 98 99 91 93 91 108 113 113 110 104 96 86 78 69 65 69 71 73 84 91 94 101
265 261 271 283 282 281 282 286 295 295 297 288 283 282 280 273 256 248 237 219 223 226 245 250 249 252 260 264 253 214 198 170 158 159 175 174 163 170 165 164 165 155 165 196 181 117 143 145 137 111 114 86 52 75 89 96 105 104 102 103 106 100 93 86 76 68 61 62 70 73 81 101 116 106
281 285 282 286 282 279 289 299 295 292 289 280 277 276 277 272 267 258 235 220 225 228 237 246 244 249 240 236 227 219 202 182 182 182 173 159 170 172 165 138 122 114 248 210 194 123 164 146 164 140 117 77 59 42 48 89 99 109 119 114 99 93 91 83 76 68 60 57 59 67 76 95 118 104
293 297 297 285 283 282 288 293 296 294 288 278 277 274 265 267 269 328 286 240 228 239 231 241 239 244 231 198 195 178 189 202 194 204 164 172 175 169 161 166 165 168 166 173 180 137 147 159 158 329 149 141 162 166 132 129 76 117 131 116 107 99 98 92 75 65 62 56 57 60 67 71 87 108
289 298 295 291 315 320 309 303 299 294 292 280 268 264 263 261 280 322 253 243 229 236 245 246 234 211 157 185 173 163 174 183 191 189 180 182 180 157 152 144 135 104 127 158 173 137 152 169 157 134 85 63 117 134 161 111 147 126 111 119 120 113 109 96 99 88 73 64 59 64 62 69 64 87
278 274 275 294 325 328 317 307 298 297 292 289 276 270 264 232 200 210 212 182 149 193 199 193 185 170 163 166 174 174 172 165 148 147 131 116 108 140 157 155 140 122 151 164 178 156 135 168 168 145 131 120 106 121 132 144 141 135 112 94 99 119 109 111 103 95 92 85 76 62 69 71 74 68
269 273 283 303 322 317 304 298 297 291 298 298 274 263 234 197 164 109 128 148 160 153 158 155 151 141 159 163 172 171 157 155 154 141 130 126 130 129 109 76 112 145 145 150 171 163 152 148 170 156 150 141 137 136 142 148 163 176 122 105 108 101 95 104 100 101 97 97 94 100 86 70 68 75
263 270 289 310 304 301 332 325 343 351 341 325 323 326 74 76 64 72 78 73 106 102 102 100 86 71 41 41 62 51 34 112 110 103 104 104 111 109 98 89 90 96 119 138 150 154 148 147 162 163 147 148 150 157 156 71 128 159 138 125 98 80 86 97 104 104 97 109 110 90 90 88 73 94
254 262 270 278 272 148 357 351 38 35 22 360 347 2 53 78 66 63 70 79 88 88 81 86 82 70 62 73 70 70 92 83 77 87 78 86 89 88 87 83 84 94 98 103 112 127 145 152 155 144 148 153 144 148 146 151 152 162 156 140 120 116 78 85 87 100 105 94 91 80 78 84 85 46
274 268 250 216 200 206 239 202 71 79 17 313 354 60 54 47 61 61 67 83 92 91 88 77 84 95 99 82 75 59 73 104 105 99 94 101 98 102 104 93 72 66 72 79 95 109 120 133 144 145 133 118 138 140 145 139 145 149 161 137 123 105 21 102 103 92 113 103 92 90 80 71 66 53
245 253 230 138 118 97 86 98 121 107 314 312 26 31 64 59 59 69 59 64 101 107 108 101 90 73 90 113 98 81 72 70 62 102 114 102 100 109 111 108 105 89 60 59 61 77 113 123 133 141 138 131 113 132 147 132 128 146 148 140 151 144 159 148 126 115 116 103 96 96 101 105 94 63
235 220 169 142 120 99 83 86 99 122 309 328 279 67 63 82 82 91 95 84 66 71 89 97 102 95 73 64 97 103 93 86 82 91 104 113 116 119 118 105 111 108 93 67 59 45 58 68 104 122 132 144 139 139 116 128 138 139 129 137 120 93 130 147 141 133 99 101 108 112 106 100 97 88
240 206 159 146 139 122 127 144 185 199 351 5 322 96 93 84 91 87 63 115 109 103 100 105 105 105 104 98 88 91 92 95 104 114 114 117 120 137 125 127 135 134 137 131 98 62 60 62 44 57 71 77 119 135 127 116 125 137 141 145 144 141 145 138 141 133 115 110 122 135 140 140 186 30
224 207 175 175 160 149 150 170 197 196 128 142 69 23 98 111 108 104 96 101 123 119 116 120 123 124 121 121 118 114 107 92 98 135 127 130 130 127 130 118 117 118 126 132 128 127 92 65 84 70 74 69 44 42 122 133 140 156 144 148 149 147 148 146 146 143 169 166 150 152 156 157 148 174
214 207 178 178 175 173 168 180 194 183 161 178 171 163 306 87 125 128 120 131 135 139 138 142 134 141 135 131 131 127 128 136 139 142 116 115 115 122 127 128 137 144 144 134 136 139 124 130 124 109 97 104 96 61 30 33 141 132 134 140 159 140 149 158 151 155 160 142 166 140 147 172 226 97
227 209 186 184 193 182 191 191 174 194 174 178 184 166 148 160 161 140 140 141 143 152 150 155 157 151 138 131 129 128 128 137 150 151 143 135 119 121 131 141 142 142 141 140 136 143 145 151 150 142 142 143 132 130 131 17 46 157 146 158 160 147 129 144 142 145 157 152 164 159 153 176 201 245
221 210 196 195 191 183 197 174 166 190 181 189 206 190 180 181 164 146 156 139 130 134 117 118 142 130 122 115 117 127 132 136 149 162 144 135 135 141 128 123 137 141 141 143 136 149 154 157 166 148 142 139 149 161 146 121 15 343 171 146 157 162 151 147 158 163 175 169 169 173 161 163 190 171
224 197 199 202 194 193 189 154 160 191 199 195 208 206 203 163 133 132 108 121 138 134 126 121 85 136 136 128 129 137 138 137 147 145 144 142 144 144 144 145 152 153 148 128 150 163 169 157 166 165 155 158 156 154 168 207 169 168 272 168 150 161 146 144 157 176 166 184 202 165 165 203 206 169
212 203 203 205 203 195 189 182 189 198 193 203 193 193 229 207 146 137 161 157 167 158 150 147 154 149 158 158 149 149 142 134 145 149 152 159 159 154 153 150 146 136 127 139 159 166 164 171 173 176 168 161 174 187 171 161 187 146 98 316 146 133 170 167 157 159 172 175 193 188 256 273 300 45
212 205 203 197 211 208 206 185 194 193 192 198 183 174 185 195 185 181 169 166 162 177 192 183 160 155 169 166 149 139 142 152 154 153 157 159 164 161 160 159 158 148 154 158 165 186 192 188 183 181 187 170 150 106 114 95 77 65 108 64 60 136 164 161 158 161 178 189 149 192 247 339 194 97
200 207 214 199 201 206 206 201 195 188 191 185 177 181 184 188 186 192 184 172 167 171 177 167 185 187 181 166 160 157 158 162 146 148 148 153 158 167 159 152 149 160 154 178 181 176 202 207 143 81 90 109 129 123 115 126 141 165 175 170 139 80 97 117 150 164 164 152 180 201 221 217 173 155
196 211 213 190 195 203 202 199 186 179 188 187 175 175 184 183 187 161 162 164 179 190 178 168 179 193 198 182 168 158 154 167 169 153 156 160 152 145 153 166 161 172 177 175 190 200 127 76 122 132 135 131 142 156 171 174 165 170 174 167 169 123 112 110 169 217 204 171 168 177 183 163 183 211
196 211 210 203 194 190 193 196 185 181 181 175 177 179 179 172 150 162 165 167 180 189 194 186 182 188 201 192 183 182 178 176 180 178 167 172 166 161 172 192 186 178 192 193 145 99 130 142 140 147 151 147 166 163 168 178 170 143 155 163 166 145 169 148 118 201 229 222 227 235 214 208 166 220
199 200 212 196 194 189 188 186 183 185 179 176 181 186 191 185 183 185 180 176 174 191 192 188 185 188 195 197 180 182 195 189 181 178 181 183 184 184 183 185 190 192 188 149 148 147 134 161 170 156 154 181 163 170 165 141 169 176 166 146 108 161 189 195 289 187 253 254 240 233 238 236 253 308
199 204 203 199 197 195 191 186 180 181 185 182 174 194 200 203 208 198 192 188 185 180 183 189 188 193 192 185 177 189 205 190 186 192 184 177 185 188 189 179 177 182 186 179 152 154 166 161 166 177 182 161 167 181 160 165 161 155 161 156 179 194 183 176 197 197 210 210 215 220 239 229 231 246